sat.trackr.live / text

‹ back to catalog

TIANYI F

NORAD 64053 · 2025-103F

PAYLOAD ACTIVE UNKNOWN

§ Identity

Operator
Country
PRC
Launch date
2025-05-17
Launch site
JSC
Launch vehicle
Mass (kg)
RCS (m²)

External: N2YO · Heavens-Above · Gunter

§ Orbital elements

Epoch: 2026-05-25T04:03:57.854304Z

Period
94.81 min
Inclination
97.3811°
Eccentricity
0.0001793
Mean motion
15.18824929 rev/d
Perigee alt
508.2 km
Apogee alt
510.6 km
Semi-major
6,887.5 km
B*
1.5179e-4
RAAN
217.1842°
Arg perigee
222.2576°
Mean anomaly
137.8521°
Rev number
5,655

§ Raw data

TIANYI F1 64053U 25103F   26145.16941961  .00003093  00000+0  15179-3 0  99942 64053  97.3811 217.1842 0001793 222.2576 137.8521 15.18824929 56557

JSON: /api/v1/satellites/64053 · /tle

For live sub-satellite position, see the globe view (requires WebGL).

§ Visibility from observer

Set your observer location to see the next 7 days of passes ≥ 10°. The values pass through the URL so the page stays shareable.

No JS? Fill the form by hand. The geolocation button needs JavaScript.